Weather History for KCDJ - December, 2012

Change the Weather History Date:

Saturday, December 8, 2012

  Actual Average (KIRK) Record (KIRK)
Temperature  
Mean Temperature 38 °F 30 °F  
Max Temperature 43 °F 39 °F - ()
Min Temperature 32 °F 22 °F - ()
Degree Days  
Heating Degree Days 28 34  
Month to date heating degree days 265  
Since 1 July heating degree days 1486  
Cooling Degree Days 0 0  
Month to date cooling degree days 0  
Year to date cooling degree days 939  
Moisture  
Dew Point 34 °F    
Average Humidity 83    
Maximum Humidity 93    
Minimum Humidity 70    
Precipitation  
Precipitation 0.02 in 0.07 in - ()
Month to date precipitation 0.53  
Year to date precipitation 38.09  
Sea Level Pressure  
Sea Level Pressure 30.00 in    
Wind  
Wind Speed 4 mph (East)    
Max Wind Speed 12 mph    
Max Gust Speed 16 mph    
T = Trace of Precipitation, MM = Missing Value Source: NWS Daily Summary

Daily Weather History Graph

Daily Weather History Graph

Search for Another Location

Airport or City:

Trip Planner

Search our weather history database for the weather conditions in past years. The results will help you decide how hot, cold, wet, or windy it might be!

Date:

Astronomy

Dec. 08, 2012 Rise Set
Actual Time 7:23 AM CST 4:49 PM CST
Civil Twilight 6:53 AM CST 5:19 PM CST
Nautical Twilight 6:19 AM CST 5:53 PM CST
Astronomical Twilight 5:46 AM CST 6:26 PM CST
Moon 1:49 AM CST (12/8) 1:19 PM CST (12/8)
Length of Visible Light 10h 26m
Length of Day
9h 25m
Waning Crescent, 28% of the Moon is Illuminated
Dec 8
Waning Crescent
Dec 13
New
Dec 19
First Quarter
Dec 28
Full
Jan 4
Last Quarter

Hourly Weather History & Observations

Time (CST) Temp. Windchill Dew Point Humidity Pressure Visibility Wind Dir Wind Speed Gust Speed Precip Events Conditions
12:52 AM 39.9 °F 35.8 °F 37.0 °F 89% 29.97 in - NNW 5.8 mph - N/A   Unknown
1:52 AM 39.9 °F - 37.0 °F 89% 29.97 in - Calm Calm - N/A   Unknown
2:52 AM 39.9 °F - 36.0 °F 86% 29.99 in - Calm Calm - N/A   Unknown
3:52 AM 37.0 °F - 35.1 °F 93% 29.99 in - Calm Calm - N/A   Unknown
4:52 AM 36.0 °F - 34.0 °F 93% 30.00 in - Calm Calm - N/A   Unknown
5:52 AM 33.1 °F 28.7 °F 30.9 °F 92% 30.03 in - NNW 4.6 mph - N/A   Unknown
6:52 AM 33.1 °F 30.0 °F 30.9 °F 92% 30.03 in - North 3.5 mph - N/A   Unknown
7:52 AM 32.0 °F 28.7 °F 28.9 °F 88% 30.05 in - North 3.5 mph - N/A   Unknown
8:52 AM 33.1 °F - 30.9 °F 92% 30.05 in - Calm Calm - N/A   Unknown
9:52 AM 37.9 °F 34.4 °F 34.0 °F 86% 30.07 in - Variable 4.6 mph - N/A   Unknown
10:52 AM 39.9 °F 35.8 °F 34.0 °F 79% 30.06 in - East 5.8 mph - N/A   Unknown
11:52 AM 42.1 °F 38.4 °F 34.0 °F 73% 30.03 in - Variable 5.8 mph - N/A   Unknown
12:52 PM 42.1 °F 37.1 °F 33.1 °F 70% 30.00 in - ENE 8.1 mph - N/A   Unknown
1:52 PM 43.0 °F 38.8 °F 34.0 °F 71% 29.99 in - East 6.9 mph - N/A   Unknown
2:52 PM 42.1 °F 37.7 °F 33.1 °F 70% 30.00 in - East 6.9 mph - N/A   Unknown
3:52 PM 41.0 °F 35.2 °F 32.0 °F 70% 30.00 in - ESE 9.2 mph - N/A   Unknown
4:52 PM 39.9 °F 32.9 °F 32.0 °F 73% 29.99 in - ESE 11.5 mph - N/A   Unknown
5:52 PM 39.0 °F 32.3 °F 32.0 °F 76% 29.99 in - ESE 10.4 mph 16.1 mph N/A   Unknown
6:52 PM 39.0 °F 34.8 °F 33.1 °F 79% 29.98 in - ESE 5.8 mph - N/A   Unknown
7:52 PM 39.0 °F 35.7 °F 33.1 °F 79% 30.00 in - ESE 4.6 mph - N/A   Unknown
8:52 PM 39.0 °F 34.8 °F 34.0 °F 82% 29.98 in - ESE 5.8 mph - N/A   Unknown
9:52 PM 39.0 °F 35.7 °F 35.1 °F 86% 29.97 in - East 4.6 mph - 0.01 in   Unknown
10:52 PM 39.0 °F 36.8 °F 36.0 °F 89% 29.96 in - Variable 3.5 mph - N/A   Unknown
11:52 PM 39.0 °F 34.8 °F 37.0 °F 93% 29.95 in - East 5.8 mph - 0.01 in   Unknown